Meath Environmental Platform

Observations for Trim Patrick St

Time AQI Temp °C Hum % Pres Pa CO μg/m³ H₂S μg/m³ NO μg/m³ NO₂ μg/m³ O₃ μg/m³ SO₂ μg/m³ PM1 μg/m³ PM2.5 μg/m³ PM10 μg/m³
Saturday 8 August 2026
09:58 1 24.8 47 69,157 0 0 1.99 7.42 50.25 5.35 2 7.38 8.12
09:57 1 24.8 47 69,157 0 0 2.02 6.43 45.94 5.5 2.86 8.13 8.94
09:56 1 24.8 47 69,187 0 0 2.02 3.84 33.11 5.91 2.86 8.16 8.98
09:54 1 24.7 48 69,204 0 0 2.08 8.03 55.55 5.5 2.86 8.09 8.9
09:52 1 24.7 48 69,265 0 0 2.08 4.32 28.59 5.51 2 7.33 8.07
09:51 1 24.6 48 69,298 0 0 2.14 4.61 40.03 5.36 2.86 7.32 8.05
09:50 1 24.6 48 69,334 0 0 2.13 3.42 40.28 5.03 2.86 8.07 8.87
09:48 1 24.5 49 69,422 0 0 2.13 5.1 29.09 5.77 2 6.46 7.11
09:47 1 24.5 50 69,469 0 0 2.1 7.49 34.27 5.56 2.86 8.73 9.6
09:45 1 24.4 50 69,532 0 0 2.23 6.73 34.25 5.5 2.86 7.18 7.89
09:42 1 24.4 50 69,602 0 0 2.27 7.68 36.46 5.25 2.86 7.95 8.75
09:41 1 24.3 50 69,642 0 0 2.33 5.91 27.76 5.06 2 6.42 7.06
09:40 1 24.3 51 69,725 0 0 2.37 6.99 34.32 5.23 2 7.14 7.85
09:39 1 24.3 50 69,806 0 0 2.4 7.17 26.53 5.04 2.86 7.16 7.87
09:38 1 24.3 50 69,885 0 0 2.32 4.71 21.89 4.79 3.71 8.72 9.59
09:37 1 24.3 50 69,984 0.03 0 2.38 5.09 8.95 5.75 2.86 7.93 8.72
09:36 1 24.3 51 70,060 0.03 0 2.47 10.45 32.73 6.09 2.86 7.89 8.67
09:35 1 24.3 50 70,121 0.01 0 2.42 9.39 28.14 5.69 2.86 7.14 7.86
09:34 1 24.3 51 70,178 0.02 0 2.52 6.98 20.97 5.5 2 7.13 7.84
09:33 1 24.3 51 70,253 0.04 0 2.53 7.7 26.81 5.39 2.86 8.66 9.53